Location: Hengsberg
(49.2218°N, 7.5622°E)
Time: 00:17:10
(UTC+00:00)

Daily predictions for brighter satellites

Satellite Brightness Start Highest point End
(mag) Time Altitude Azimuth Time Altitude Azimuth Time Altitude Azimuth
ATLAS 3B R/B 4.3 01:38:53 27° NNE 01:38:53 27° NNE 01:42:02 10° NE
Cosmos 1980 Rocket 4.2 02:14:46 22° E 02:14:46 22° E 02:17:18 10° ESE
CENTAUR R/B 4.3 02:24:04 25° NNW 02:25:41 27° N 02:32:23 10° ENE
Cosmos 1833 Rocket 4.1 02:32:37 33° ENE 02:32:37 33° ENE 02:36:16 10° NE
ADEOS II 4.3 02:35:03 10° N 02:36:18 17° N 02:36:18 17° N
CZ-2C R/B 4.0 02:44:47 10° NNE 02:48:28 31° ENE 02:48:28 31° ENE
Lacrosse 5 3.4 02:57:41 31° NNE 02:57:41 31° NNE 03:00:51 10° NE
IDEFIX/ARIANE 42P 4.2 02:58:05 10° N 03:00:23 26° N 03:00:23 26° N
ALOS 4.3 03:02:52 10° NE 03:06:44 25° E 03:08:40 19° SE
NOSS 3-1 (C) 3.3 03:19:38 78° NNE 03:19:38 78° NNE 03:25:40 10° NE
PAYLOAD A 4.3 03:15:16 10° NNE 03:19:59 66° ENE 03:19:59 66° ENE
Cosmos 2278 3.7 03:21:44 73° NNE 03:22:06 77° ENE 03:27:49 10° SSE
ATLAS 3B R/B 4.1 03:26:07 23° NNW 03:27:47 25° N 03:33:21 10° NE
X-37B 3.8 03:31:20 12° ESE 03:31:20 12° ESE 03:31:40 10° ESE
USA 267 3.9 03:24:38 10° ENE 03:30:48 46° N 03:32:33 38° NW
COSMOS 2406 3.3 03:31:37 67° NNW 03:31:37 67° NNW 03:36:57 10° NNE
Cosmos 1932 4.3 03:32:30 57° NW 03:33:54 88° SW 03:40:07 10° SE
NOSS 2-3 (C) 3.9 03:40:02 65° NNE 03:40:02 65° NNE 03:44:27 10° NE
Cosmos 2360 Rocket 4.4 03:35:39 10° N 03:40:08 23° NE 03:44:37 10° E
H-2A R/B 2.7 03:37:44 10° SSE 03:41:59 54° ENE 03:46:09 10° N
SeaSat 1 2.7 03:37:32 10° SSE 03:41:24 56° SSE 03:41:24 56° SSE
Meteor 2-8 Rocket 4.3 03:43:35 49° SSW 03:45:23 85° W 03:51:33 10° N
ARIANE 5 R/B 3.9 03:41:31 10° N 03:43:58 25° NNW 03:43:58 25° NNW
FENGYUN 3A 4.0 03:42:40 10° NNE 03:48:06 63° ESE 03:52:12 18° S
ISS -1.6 03:50:13 23° ESE 03:50:13 23° ESE 03:52:19 10° E
Cosmos 2082 Rocket 2.1 03:49:56 54° SSW 03:51:19 87° ESE 03:57:04 10° NNE
USA 229 DEB 3.5 03:54:21 51° WSW 03:56:08 77° NW 04:03:06 10° NE
USA 229 3.5 03:54:26 51° WSW 03:56:14 77° NW 04:03:12 10° NE
Cosmos 1980 Rocket 2.1 03:56:41 59° WSW 03:56:41 59° WSW 04:02:14 10° S
Meteor 2-3 Rocket 3.6 03:51:08 10° NNW 03:56:48 68° W 04:02:29 10° S
Cosmos 1244 Rocket 4.3 03:55:01 10° NNW 04:01:10 73° W 04:07:20 10° S
Cosmos 2322 Rocket 3.1 04:00:35 10° NNW 04:06:03 47° NE 04:11:30 10° SE
ATLAS CENTAUR R/B 1.9 04:04:52 36° NNW 04:06:11 56° NE 04:10:18 10° SE
Iridium 4 Rocket 3.3 04:03:36 22° S 04:06:57 79° W 04:11:46 10° N
CZ-4B R/B 3.1 04:05:30 10° SE 04:08:24 32° ENE 04:11:16 10° N
METEOR-M 4.3 04:05:11 10° NNE 04:10:33 72° ESE 04:15:52 10° S
ADEOS 4.3 04:07:16 10° NNE 04:12:25 54° E 04:17:31 10° S
NOSS 3-1 (A) 3.3 04:10:50 45° WSW 04:12:37 69° NW 04:19:12 10° NE
Cosmos 1110 Rocket 3.9 04:09:01 10° NNW 04:14:19 71° WSW 04:19:32 10° SSE
Cosmos 1833 Rocket 3.2 04:14:19 38° WNW 04:14:59 40° NW 04:20:17 10° NNE
COSMO-SKYMED 1 3.2 04:13:46 10° SSE 04:18:01 57° ENE 04:22:18 10° N
CENTAUR R/B 4.2 04:11:30 10° NW 04:18:34 39° NNE 04:26:30 10° E
Meteor 2-15 Rocket 4.4 04:12:38 10° S 04:18:48 84° WNW 04:25:01 10° N
Cosmos 1862 3.8 04:19:43 10° N 04:23:45 61° ENE 04:27:46 10° SSE
Cosmos 1743 Rocket 4.4 04:19:46 10° N 04:24:10 52° ENE 04:28:32 10° SSE
SL-16 R/B 2.3 04:20:17 10° NNW 04:26:00 77° ENE 04:31:41 10° SSE
CZ-2C R/B 2.9 04:22:59 10° N 04:27:30 36° WNW 04:27:51 35° WNW
CREW DRAGON DEMO-1 DEB 4.0 04:28:39 30° SSE 04:28:39 30° SSE 04:30:28 10° SE
Meteor 1-31 Rocket 3.1 04:25:12 10° NNE 04:29:07 66° ESE 04:32:59 10° S
ERS-2 4.1 04:27:05 10° SE 04:30:19 31° ENE 04:33:33 10° N
Cosmos 1386 Rocket 4.5 04:24:27 10° N 04:30:55 85° W 04:37:18 10° S
Cosmos 2219 Rocket 4.4 04:27:09 10° N 04:31:35 23° NE 04:36:02 10° E
PSLV R/B 4.1 04:27:53 10° N 04:31:54 38° WNW 04:32:10 37° WNW
Cosmos 1553 Rocket 3.9 04:25:45 10° SSW 04:32:08 72° WNW 04:38:28 10° N
Meteor 1-4 Rocket 4.0 04:28:45 10° SSE 04:32:15 40° E 04:35:46 10° NNE
Cosmos 1417 Rocket 4.4 04:27:19 10° SSW 04:33:32 79° W 04:39:53 10° N
Cosmos 1766 Rocket 4.0 04:30:09 10° NNW 04:34:19 38° W 04:38:26 10° SSW
NOSS 2-3 (E) 4.4 04:33:18 32° WNW 04:34:30 38° NNW 04:39:29 10° NE
Cosmos 1048 Rocket 4.1 04:33:43 31° WSW 04:35:50 50° WNW 04:40:53 10° NNE
Lacrosse 5 3.0 04:36:52 19° NW 04:40:00 36° N 04:44:40 10° ENE
Cosmos 494 Rocket 3.9 04:36:53 21° SW 04:40:19 63° WNW 04:45:29 10° NNE
CZ-4B R/B 3.7 04:37:46 10° NNE 04:41:43 89° WNW 04:45:28 10° SSW
SKYMED 3 4.5 04:37:40 10° SSE 04:42:01 84° WSW 04:46:23 10° NNW
Lacrosse 4 Rocket 3.6 04:40:20 10° NNW 04:44:12 27° NE 04:48:00 10° E
ALOS 2.6 04:39:54 10° N 04:44:20 44° WNW 04:47:11 20° SW
Okean 3 Rocket 4.5 04:43:13 10° NNW 04:50:59 - SSW 04:46:21 27° WNW
Cosmos 1269 Rocket 4.2 04:44:21 10° SSW 04:49:36 77° ESE 04:54:55 10° NNE
Cosmos-2242 4.4 04:52:09 20° WNW 04:52:09 20° WNW 04:54:57 10° NNW
Cosmos 1408 Rocket 3.8 04:47:36 10° NNW 04:51:53 46° W 04:56:07 10° SSW
Cosmos 1484 Rocket 3.4 04:51:52 10° N 04:55:15 32° WNW 04:56:28 26° WSW
deb Chang Zheng 4 4.0 04:53:32 10° NNE 04:57:47 63° ESE 05:02:01 10° S
Cosmos 389 Rocket 4.0 04:59:24 19° NW 04:59:24 19° NW 05:01:24 10° NNW
Cosmos 1689 Rocket 3.1 04:57:29 10° SSE 05:00:12 45° ENE 05:02:56 10° N
MOS 1 Rocket 3.1 04:59:16 10° S 05:03:26 53° W 05:07:44 10° NNW
Cosmos 1500 Rocket 3.5 04:59:48 10° NNW 05:04:05 63° W 05:08:22 10° S
X-37B 1.6 05:03:37 22° WSW 05:05:03 34° S 05:07:57 10° ESE
SKYMED 2 3.7 05:01:53 10° S 05:06:05 48° W 05:10:19 10° NNW
H-2A R/B 2.9 05:04:58 10° NNE 05:08:53 81° ESE 05:12:48 10° S
Cosmos 1842 Rocket 3.8 05:06:24 10° SSW 05:10:38 47° WNW 05:14:52 10° N
NOSS 3-1 (C) 4.5 05:07:01 16° WNW 05:10:57 32° NNW 05:17:03 10° NE
Cosmos 2333 Rocket 3.5 05:06:16 10° NNW 05:11:45 42° NE 05:17:13 10° ESE
Sich 1 3.5 05:07:59 10° N 05:12:26 67° E 05:16:50 10° SSE
Cosmos 2221 2.8 05:08:44 10° SSW 05:12:56 46° WNW 05:17:10 10° N
USA 267 3.8 05:06:53 10° E 05:13:12 53° NNE 05:19:32 10° WNW
S3M 4.1 05:09:20 10° SSW 05:15:14 49° WNW 05:21:12 10° N
Genesis I 4.1 05:15:05 17° W 05:17:26 32° NW 05:20:59 10° NNE
SJ-12 4.2 05:14:00 10° N 05:17:56 45° WNW 05:21:49 10° SW
H-2A R/B 3.4 05:15:14 10° SW 05:18:15 18° W 05:21:14 10° NW
YAOGAN 6 2.8 05:16:06 10° NNE 05:19:42 74° ESE 05:23:13 10° S
Cosmos 2237 Rocket 4.5 05:16:27 10° N 05:20:36 20° NE 05:24:43 10° E
SeaSat 1 4.0 05:18:13 10° SW 05:20:40 14° WSW 05:21:16 13° W
ATLAS 3B R/B 4.2 05:15:00 10° NW 05:20:43 27° NNE 05:26:38 10° ENE
Meteor PRIRODA 3.6 05:17:51 10° N 05:21:33 69° WNW 05:25:15 10° SSW
Cosmos 1745 Rocket 4.5 05:16:04 10° NNW 05:21:42 37° W 05:27:21 10° SSW
NOSS 3-2 (A) 4.3 05:16:32 10° NW 05:23:54 76° NE 05:32:20 10° SE
Cosmos 2360 Rocket 2.2 05:19:10 10° NNW 05:24:53 85° WSW 05:30:34 10° SSE
Cosmos 1992 Rocket 4.0 05:20:41 10° NNW 05:25:56 85° WSW 05:31:09 10° SSE
ISS -3.8 05:23:11 14° WSW 05:26:02 83° NNW 05:29:25 10° ENE
NOSS 2-2 (C) 3.0 05:22:51 10° SW 05:26:19 80° NW 05:30:15 10° NE
Envisat 3.1 05:22:15 10° NNE 05:27:23 85° ESE 05:32:28 10° SSW
Cosmos 1633 Rocket 4.1 05:24:52 10° N 05:29:13 51° ENE 05:33:31 10° SSE
Cosmos 1709 Rocket 4.2 05:29:09 10° NNW 05:35:14 49° W 05:41:18 10° SSW
Cosmos 2082 Rocket 3.5 05:31:48 10° W 05:36:10 23° NW 05:40:40 10° N
Cosmos 2251 Rocket 4.3 05:32:31 10° S 05:37:43 58° ESE 05:43:00 10° NNE
COSMOS 2428 3.7 05:34:45 10° NNW 05:40:19 49° NE 05:45:51 10° SE
CZ-4B R/B 2.9 05:38:34 10° SW 05:40:41 16° W 05:42:46 10° NW
SL-27 R/B 2.6 05:37:44 10° SW 05:41:11 53° WNW 05:44:43 10° NNE
Okean O Rocket 3.6 05:37:40 10° NNE 05:41:41 35° E 05:45:43 10° SSE
BREEZE-M DEB (TANK) 2.5 05:39:40 10° WNW 05:41:42 37° N 05:43:56 10° ENE
NOSS 2-2 (E) 3.5 05:38:52 10° WSW 05:42:17 48° NW 05:46:16 10° NE
ATLAS CENTAUR R/B 2.7 05:41:45 10° WNW 05:44:47 21° WSW 05:47:57 10° SSW
H-2A R/B 3.6 05:44:31 10° NNE 05:48:38 49° E 05:52:33 10° S
CZ-4B DEB 4.5 05:43:29 10° NNE 05:49:02 79° ESE 05:54:32 10° SSW
Cosmos 2322 Rocket 2.9 05:44:56 10° NW 05:49:57 34° WSW 05:54:58 10° SSW
Cosmos 2344 3.6 05:46:31 10° SW 05:53:59 82° NW 06:02:11 10° NE
